"Time","Temp","Dewpoint","Humidity","Pressure","Direction","Speed","Gust","Precip","PrecipRate"
"00:04:59","33.5","31.4","92","30.28","196","0","0","0.00","0.00"
"00:09:58","33.4","31.3","92","30.28","196","0","0","0.00","0.00"
"00:14:56","33.2","31.1","92","30.28","196","0","0","0.00","0.00"
"00:19:57","33.2","31.1","92","30.28","196","0","0","0.00","0.00"
"00:24:58","33","30.9","92","30.28","196","0","0","0.00","0.00"
"00:29:56","33","30.9","92","30.28","196","0","0","0.00","0.00"
"00:34:56","32.8","30.9","92.4","30.27","196","0","0","0.00","0.00"
"00:39:56","32.8","31","93","30.27","196","0","0","0.00","0.00"
"00:44:57","32.8","31","93","30.27","196","0","0","0.00","0.00"
"00:49:59","32.8","31.1","93.2","30.27","196","0","0","0.00","0.00"
"00:54:56","32.9","31.3","93.6","30.27","196","0","0","0.00","0.00"
"00:59:57","33","31.5","94","30.27","196","0","0","0.00","0.00"
"01:04:59","33","31.5","94","30.27","196","0","0","0.00","0.00"
"01:09:56","33","31.4","93.8","30.27","196","0","0","0.00","0.00"
"01:14:59","32.9","31.1","93","30.27","196","0","0","0.00","0.00"
"01:19:57","32.8","31","93","30.26","196","0","0","0.00","0.00"
"01:24:59","32.7","30.9","93","30.26","196","0","0","0.00","0.00"
"01:29:59","32.6","30.8","93.1","30.26","196","0","0","0.00","0.00"
"01:34:57","32.7","31.2","94","30.26","196","0","0","0.00","0.00"
"01:39:59","32.8","31.3","94","30.26","196","0","0","0.00","0.00"
"01:44:57","32.8","31.1","93.3","30.26","196","0","0","0.00","0.00"
"01:49:58","32.7","30.9","93","30.26","196","0","0","0.00","0.00"
"01:54:58","32.6","31","93.6","30.26","196","0","0","0.00","0.00"
"01:59:56","32.7","31.2","94","30.26","197","0","0","0.00","0.00"
"02:04:58","32.7","31.2","94","30.25","197","0","0","0.00","0.00"
"02:09:59","32.6","30.9","93.3","30.25","197","0","0","0.00","0.00"
"02:14:57","32.5","30.7","93","30.25","197","0","0","0.00","0.00"
"02:19:59","32.4","30.6","93","30.25","197","0","0","0.00","0.00"
"02:24:57","32.5","31","94","30.25","197","0","0","0.00","0.00"
"02:29:58","32.5","31","94","30.25","196","0","0","0.00","0.00"
"02:34:55","32.5","31","94","30.25","196","0","0","0.00","0.00"
"02:39:59","32.4","30.9","94","30.25","196","0","0","0.00","0.00"
"02:44:57","32.4","30.9","94","30.25","197","0","0","0.00","0.00"
"02:49:58","32.4","30.9","94","30.25","197","0","0","0.00","0.00"
"02:54:56","32.5","31","94","30.25","197","0","0","0.00","0.00"
"02:59:58","32.5","31","94","30.25","197","0","0","0.00","0.00"
"03:04:56","32.5","31","94","30.25","197","0","0","0.00","0.00"
"03:09:56","32.6","31.1","94","30.25","196","0","0","0.00","0.00"
"03:14:59","32.6","31.1","94","30.25","197","0","0","0.00","0.00"
"03:19:57","32.6","31.1","94","30.25","197","0","0","0.00","0.00"
"03:24:57","32.5","31","94","30.25","196","0","0","0.00","0.00"
"03:29:57","32.4","30.9","94","30.25","197","0","0","0.00","0.00"
"03:34:56","32.4","30.9","94","30.24","197","0","0","0.00","0.00"
"03:39:58","32.4","30.9","94","30.24","197","0","0","0.00","0.00"
"03:44:56","32.4","30.9","94","30.24","197","0","0","0.00","0.00"
"03:49:57","32.4","31","94.2","30.24","196","0","0","0.00","0.00"
"03:54:57","32.5","31.2","94.7","30.24","197","0","0","0.00","0.00"
"03:59:59","32.6","31.3","95","30.24","196","0","0","0.00","0.00"
"04:04:53","32.7","31.4","95","30.24","197","0","0","0.00","0.00"
"04:09:57","32.7","31.2","94.1","30.24","197","0","0","0.00","0.00"
"04:14:59","32.7","31.2","94","30.25","196","0","0","0.00","0.00"
"04:19:57","32.7","31.2","94","30.25","197","0","0","0.00","0.00"
"04:24:56","32.7","31.2","94","30.25","197","0","0","0.00","0.00"
"04:29:56","32.7","31.2","94","30.25","197","0","0","0.00","0.00"
"04:34:58","32.8","31.5","95","30.25","197","0","0","0.00","0.00"
"04:39:56","32.9","31.6","95","30.25","196","0","0","0.00","0.00"
"04:44:57","33.1","31.8","95","30.25","197","0","0","0.00","0.00"
"04:49:58","33.2","31.9","95","30.25","196","0","0","0.00","0.00"
"04:54:59","33.2","31.9","95","30.25","197","0","0","0.00","0.00"
"04:59:58","33.3","32","95","30.25","196","0","0","0.00","0.00"
"05:04:56","33.3","32","95","30.25","197","0","0","0.00","0.00"
"05:09:57","33.3","32","95","30.25","197","0","0","0.00","0.00"
"05:14:56","33.4","32.1","95","30.26","196","0","0","0.00","0.00"
"05:19:57","33.4","32.1","94.9","30.26","197","0","0","0.00","0.00"
"05:24:59","33.4","31.9","94","30.26","196","0","0","0.00","0.00"
"05:29:59","33.4","31.9","94","30.26","197","0","0","0.00","0.00"
"05:34:57","33.4","31.9","94","30.26","197","0","0","0.00","0.00"
"05:39:59","33.4","31.9","94","30.26","197","0","0","0.00","0.00"
"05:44:56","33.4","31.9","94","30.27","197","0","0","0.00","0.00"
"05:49:58","33.3","31.8","94","30.27","197","0","0","0.00","0.00"
"05:54:59","33.2","31.7","94","30.27","197","0","0","0.00","0.00"
"05:59:59","33.1","31.6","94","30.27","197","0","0","0.00","0.00"
"06:04:57","33.1","31.6","94","30.27","197","0","0","0.00","0.00"
"06:09:59","33.1","31.8","94.9","30.27","196","0","0","0.00","0.00"
"06:14:56","33.2","31.9","94.6","30.27","196","0","0","0.00","0.00"
"06:19:56","33.2","31.7","94","30.26","197","0","0","0.00","0.00"
"06:24:29","33.2","31.7","94","30.26","197","0","0","0.00","0.00"
"06:29:58","33.1","31.6","94","30.26","197","0","0","0.00","0.00"
"06:34:58","33","31.5","94","30.26","197","0","0","0.00","0.00"
"06:39:57","33","31.5","94","30.26","197","0","0","0.00","0.00"
"06:44:56","33.1","31.8","94.9","30.27","197","0","0","0.00","0.00"
"06:49:58","33.1","31.7","94.5","30.27","197","0","0","0.00","0.00"
"06:54:48","33","31.5","94","30.27","197","0","0","0.00","0.00"
"06:59:57","33","31.5","94","30.28","197","0","0","0.00","0.00"
"07:04:59","33","31.6","94.6","30.28","197","0","0","0.00","0.00"
"07:09:56","33.1","31.8","95","30.28","197","0","0","0.00","0.00"
"07:14:59","33.2","31.9","95","30.28","197","0","0","0.00","0.00"
"07:19:57","33.3","32","95","30.28","197","0","0","0.00","0.00"
"07:24:57","33.4","32.1","95","30.28","197","0","0","0.00","0.00"
"07:29:58","33.5","32.2","95","30.28","196","0","0","0.00","0.00"
"07:34:56","33.7","32.4","95","30.28","197","0","0","0.00","0.00"
"07:39:58","33.9","32.6","95","30.28","197","0","0","0.00","0.00"
"07:44:56","34","32.7","95","30.29","198","0","0","0.00","0.00"
"07:49:56","34.3","33","95","30.29","198","0","0","0.00","0.00"
"07:54:56","34.6","33.1","94.3","30.29","198","0","0","0.00","0.00"
"07:59:59","35","33.6","94.9","30.29","198","0","0","0.00","0.00"
"08:04:57","35.5","34.2","95","30.29","198","0","0","0.00","0.00"
"08:09:57","36.1","34.7","94.7","30.29","198","0","0","0.00","0.00"
"08:14:56","36.4","34.6","93.2","30.30","198","0","0","0.00","0.00"
"08:19:56","36.7","34.9","93","30.30","198","0","0","0.00","0.00"
"08:24:56","36.9","35.1","92.8","30.30","198","0","0","0.00","0.00"
"08:29:56","37.2","35.1","92","30.30","198","0","0","0.00","0.00"
"08:34:58","37.4","35.3","92","30.29","198","0","0","0.00","0.00"
"08:39:57","37.6","35.5","91.8","30.29","198","0","0","0.00","0.00"
"08:44:58","38.1","36","92.1","30.29","198","0","0","0.00","0.00"
"08:49:57","38.6","36.4","91.7","30.29","198","0","0","0.00","0.00"
"08:54:57","39.1","36.7","91","30.29","209","0","2","0.00","0.00"
"08:59:57","39.7","37.1","90.1","30.29","209","0.3","2.3","0.00","0.00"
"09:04:58","40.5","37.6","89.3","30.29","209","0.5","2.3","0.00","0.00"
"09:09:59","41.2","38.1","88.7","30.29","209","0.4","2.3","0.00","0.00"
"09:14:58","42","38.5","87.3","30.29","228","0.9","3.5","0.00","0.00"
"09:19:58","42.5","38.6","86","30.29","249","1.3","3.5","0.00","0.00"
"09:24:59","43.2","39.3","86.1","30.29","248","0.8","2.3","0.00","0.00"
"09:29:59","43.9","39.7","84.8","30.29","248","1.2","3.5","0.00","0.00"
"09:34:58","44.4","39.7","83.3","30.29","248","0","1.2","0.00","0.00"
"09:39:56","45.1","40.2","83","30.29","248","0","0","0.00","0.00"
"09:44:56","45.6","40.9","83.5","30.29","221","0.3","3.5","0.00","0.00"
"09:49:56","46","40.8","82","30.28","221","0.5","2.3","0.00","0.00"
"09:54:56","46.6","41.3","81.8","30.28","221","0.9","3","0.00","0.00"
"09:59:56","47.1","41.8","81.8","30.28","222","1.2","2.3","0.00","0.00"
"10:04:58","47.5","42.1","81.2","30.28","238","0.8","3.5","0.00","0.00"
"10:09:58","48","42.4","80.8","30.28","239","1.5","4","0.00","0.00"
"10:14:59","48.4","42.3","79.6","30.28","238","2","4","0.00","0.00"
"10:19:58","48.6","42.5","79.3","30.28","281","1","4","0.00","0.00"
"10:24:56","48.9","42.4","78.2","30.28","279","1.1","3.5","0.00","0.00"
"10:29:56","49.4","43.1","78.9","30.28","262","1","2.3","0.00","0.00"
"10:34:59","50","43.3","77.7","30.28","239","1.3","3.5","0.00","0.00"
"10:39:56","50.6","43","75.2","30.28","254","1.9","4","0.00","0.00"
"10:44:56","50.8","43.1","74.8","30.28","271","0.7","3.5","0.00","0.00"
"10:49:56","51.3","43.5","74.6","30.27","253","1.2","3.5","0.00","0.00"
"10:54:56","51.7","43.4","73.1","30.27","185","1","3.5","0.00","0.00"
"10:59:56","52.1","43.7","73","30.27","177","1.3","3.5","0.00","0.00"
"11:04:57","52.7","43.9","72.1","30.27","177","1.1","3.5","0.00","0.00"
"11:09:58","53.1","44.2","71.9","30.27","173","1","3","0.00","0.00"
"11:14:59","53.6","44.4","70.8","30.27","147","2.1","5","0.00","0.00"
"11:19:59","54.1","44.2","69.1","30.25","133","1.9","4","0.00","0.00"
"11:24:59","54.4","44.5","69.3","30.25","167","1.9","4","0.00","0.00"
"11:29:59","54.6","44.1","67.7","30.25","170","1.9","5","0.00","0.00"
"11:34:56","54.9","44.5","68","30.24","111","2","4","0.00","0.00"
"11:39:57","55.1","44.5","67.7","30.24","115","2.4","5","0.00","0.00"
"11:44:58","55.2","44.1","66.2","30.24","145","1.9","4","0.00","0.00"
"11:49:57","55.7","44.7","66.5","30.23","187","2.3","6","0.00","0.00"
"11:54:57","56.1","44.6","65","30.23","143","2.3","6","0.00","0.00"
"11:59:56","56.4","44.6","64.5","30.23","86","3.2","7","0.00","0.00"
"12:04:57","56.4","44.9","65.3","30.22","98","2.3","6.9","0.00","0.00"
"12:09:57","56.9","45.1","64.8","30.22","153","1.6","5.8","0.00","0.00"
"12:14:58","57.3","45.6","65","30.22","199","1.8","5","0.00","0.00"
"12:19:57","57.9","46.5","65.7","30.21","139","1.9","4","0.00","0.00"
"12:24:57","58.3","45.5","62.5","30.21","130","2.4","7","0.00","0.00"
"12:29:56","58.9","46.1","62.7","30.21","202","2.7","6.9","0.00","0.00"
"12:34:59","59.4","46.2","61.5","30.20","195","3.7","7","0.00","0.00"
"12:39:56","59.6","46.4","61.5","30.20","204","3.4","5","0.00","0.00"
"12:44:55","59.8","46.4","61.2","30.20","209","3.4","6","0.00","0.00"
"12:49:59","60.1","46.3","60.4","30.19","204","3.7","9","0.00","0.00"
"12:54:58","60.2","46.9","61.5","30.19","188","3.3","9.2","0.00","0.00"
"12:59:58","60.5","46.7","60.5","30.19","192","2.9","7","0.00","0.00"
"13:04:59","60.6","46.4","59.4","30.19","139","2.8","6","0.00","0.00"
"13:09:56","60.6","45.8","58.4","30.19","154","3.1","5","0.00","0.00"
"13:14:57","60.6","45.9","58.3","30.19","173","2.4","5","0.00","0.00"
"13:19:57","60.8","46","58.2","30.18","157","3.3","9.2","0.00","0.00"
"13:24:58","61","45.8","57.3","30.18","110","3","7","0.00","0.00"
"13:29:58","60.9","46","57.9","30.18","142","3.3","7","0.00","0.00"
"13:34:59","61.1","45.8","57.1","30.17","138","2.8","5","0.00","0.00"
"13:39:56","61.4","46.1","57.1","30.17","172","3.2","7","0.00","0.00"
"13:44:56","61.8","46.3","56.8","30.17","202","3.2","6","0.00","0.00"
"13:49:58","62","46","55.9","30.17","179","2.8","6","0.00","0.00"
"13:54:58","62.2","46","55.5","30.17","173","3.6","9.2","0.00","0.00"
"13:59:57","62.3","46.8","56.7","30.17","204","4.5","9.2","0.00","0.00"
"14:04:59","62.4","46.8","56.8","30.17","190","3.2","7","0.00","0.00"
"14:09:56","62.7","47.2","56.8","30.17","194","3.8","7","0.00","0.00"
"14:14:57","63","47.2","56.2","30.17","186","3.4","6.9","0.00","0.00"
"14:19:56","63.1","47","55.7","30.16","203","4.1","11","0.00","0.00"
"14:24:56","63.2","47.3","56.1","30.16","181","3.7","7","0.00","0.00"
"14:29:56","63.6","47.5","55.9","30.16","179","2.2","5","0.00","0.00"
"14:34:57","63.9","48","56","30.16","183","2.2","4","0.00","0.00"
"14:39:57","64.3","48.3","55.9","30.16","190","2.6","5","0.00","0.00"
"14:44:58","64.4","47.7","54.6","30.16","195","2.6","6","0.00","0.00"
"14:49:58","64.4","48.1","55.4","30.15","166","2.2","5","0.00","0.00"
"14:54:57","64.5","48.3","55.7","30.15","180","2.5","5","0.00","0.00"
"14:59:59","64.8","48.3","55.2","30.15","192","2.4","6","0.00","0.00"
"15:04:59","64.8","48.7","56","30.15","176","2.6","6","0.00","0.00"
"15:09:56","64.8","48.5","55.6","30.15","194","2.8","9.2","0.00","0.00"
"15:14:57","64.7","48.6","55.9","30.15","144","2.3","5","0.00","0.00"
"15:19:58","64.8","48.8","56.3","30.15","166","2.1","6","0.00","0.00"
"15:24:59","64.8","48.5","55.7","30.15","188","3.2","6","0.00","0.00"
"15:29:56","64.5","48","55.2","30.15","174","3.2","5.8","0.00","0.00"
"15:34:56","64.1","48.3","56.5","30.15","201","2.5","5","0.00","0.00"
"15:39:58","64.2","48.4","56.5","30.15","160","2.4","5","0.00","0.00"
"15:44:59","64.3","48.4","56.3","30.15","159","1.9","5","0.00","0.00"
"15:49:58","64.2","47.9","55.4","30.15","163","3","7","0.00","0.00"
"15:54:56","63.9","48","56.1","30.15","186","2.3","7","0.00","0.00"
"15:59:58","63.6","47.8","56.5","30.15","184","2","4","0.00","0.00"
"16:04:59","63.1","47.5","56.7","30.15","184","1.6","4","0.00","0.00"
"16:09:56","62.8","47.3","56.8","30.15","152","2.2","6","0.00","0.00"
"16:14:57","62.6","47.2","57.2","30.15","160","1.7","4","0.00","0.00"
"16:19:57","62.4","47.2","57.5","30.15","157","1.1","5","0.00","0.00"
"16:24:58","62.1","47.1","57.9","30.15","142","1.6","3.5","0.00","0.00"
"16:29:59","61.8","46.9","58","30.16","127","2.2","5","0.00","0.00"
"16:34:56","61.4","46.5","58","30.16","121","1.4","3.5","0.00","0.00"
"16:39:58","61","46.4","58.6","30.16","120","2.5","6","0.00","0.00"
"16:44:59","60.6","46.2","59","30.16","125","2.4","4.6","0.00","0.00"
"16:49:59","60.3","46.1","59.4","30.16","126","2.2","4","0.00","0.00"
"16:54:59","59.9","46","60","30.16","124","2.2","4","0.00","0.00"
"16:59:58","59.6","45.8","60.4","30.16","124","1.3","3.5","0.00","0.00"
"17:04:57","59.3","45.8","61","30.16","124","1.4","3.5","0.00","0.00"
"17:09:57","59","45.6","61","30.16","124","1.1","3.5","0.00","0.00"
"17:14:59","58.8","45.5","61.3","30.16","124","0.6","2.3","0.00","0.00"
"17:19:56","58.6","45.6","62","30.16","124","0.8","2.3","0.00","0.00"
"17:24:57","58.3","45.5","62.4","30.16","124","0.2","1.2","0.00","0.00"
"17:29:59","57.7","45.5","63.6","30.16","124","0","1.2","0.00","0.00"
"17:34:58","57.2","45.3","64.6","30.16","124","0","0","0.00","0.00"
"17:39:57","56.6","45.1","65.4","30.16","124","0","0","0.00","0.00"
"17:44:57","56","44.8","66.1","30.16","124","0","0","0.00","0.00"
"17:49:58","55.4","44.8","67.6","30.16","124","0","0","0.00","0.00"
"17:54:55","54.7","44.6","68.9","30.16","124","0.2","2.3","0.00","0.00"
"17:59:59","53.8","44.5","70.6","30.16","124","0.1","1.2","0.00","0.00"
"18:04:57","53.3","44.5","71.9","30.16","124","0","1.2","0.00","0.00"
"18:09:58","52.9","44.6","73.2","30.16","124","0","1.2","0.00","0.00"
"18:14:56","52.5","44.4","73.7","30.16","124","0","0","0.00","0.00"
"18:19:57","52","44.2","74.5","30.16","124","0","0","0.00","0.00"
"18:24:57","51.6","44","75.2","30.16","124","0","0","0.00","0.00"
"18:29:59","51.2","44","76.5","30.16","124","0","0","0.00","0.00"
"18:34:55","50.8","44.1","77.8","30.16","124","0.2","2","0.00","0.00"
"18:39:57","50.5","44","78.1","30.16","124","0.1","2","0.00","0.00"
"18:44:59","50.3","44","79","30.16","124","0","0","0.00","0.00"
"18:49:56","50","43.8","79.2","30.16","124","0","0","0.00","0.00"
"18:54:57","49.8","43.8","79.7","30.16","124","0","0","0.00","0.00"
"18:59:58","49.6","43.7","80","30.16","124","0","0","0.00","0.00"
"19:04:56","49.3","43.6","80.8","30.16","124","0","1.2","0.00","0.00"
"19:09:57","49","43.4","81.3","30.16","124","0.1","1.2","0.00","0.00"
"19:14:59","48.8","43.7","82.7","30.16","124","0.7","2.3","0.00","0.00"
"19:19:59","48.7","43.8","83","30.16","124","0","1.2","0.00","0.00"
"19:24:56","48.7","43.8","83","30.16","124","0","0","0.00","0.00"
"19:29:56","48.4","43.4","82.8","30.16","124","0.2","1.2","0.00","0.00"
"19:34:56","48.1","43.3","83.3","30.15","124","0","0","0.00","0.00"
"19:39:56","47.8","43.2","84","30.15","124","0","0","0.00","0.00"
"19:44:57","47.6","43","84","30.15","124","0","0","0.00","0.00"
"19:49:57","47.3","42.7","84","30.15","124","0","0","0.00","0.00"
"19:54:58","47","42.6","84.7","30.15","124","0","0","0.00","0.00"
"19:59:52","46.8","42.7","85.5","30.15","124","0","0","0.00","0.00"
"20:04:56","46.7","42.7","86","30.15","124","0","0","0.00","0.00"
"20:09:57","46.6","42.6","86","30.15","124","0","0","0.00","0.00"
"20:14:56","46.5","42.5","86","30.15","124","0","0","0.00","0.00"
"20:19:57","46.2","42.2","86","30.15","124","0","0","0.00","0.00"
"20:24:59","46","42.1","86.4","30.15","124","0","0","0.00","0.00"
"20:29:56","45.9","42.4","87.5","30.15","124","0","0","0.00","0.00"
"20:34:57","45.9","42.3","87.2","30.15","124","0","0","0.00","0.00"
"20:39:57","45.7","42.1","87","30.15","124","0","0","0.00","0.00"
"20:44:57","45.5","41.9","87","30.15","124","0","0","0.00","0.00"
"20:49:58","45.3","41.9","87.6","30.15","124","0","0","0.00","0.00"
"20:54:59","45.3","42","88","30.15","124","0","0","0.00","0.00"
"20:59:58","45.2","41.9","88","30.15","124","0","0","0.00","0.00"
"21:04:59","45.1","41.7","87.7","30.15","124","0","0","0.00","0.00"
"21:09:56","44.9","41.3","87.1","30.15","124","0","0","0.00","0.00"
"21:14:59","44.7","41.5","88.5","30.15","124","0","0","0.00","0.00"
"21:19:59","44.9","42.2","90.3","30.14","124","0","0","0.00","0.00"
"21:24:57","45.2","42.4","90.2","30.14","124","0","0","0.00","0.00"
"21:29:59","45.3","42.5","89.8","30.14","124","0","0","0.00","0.00"
"21:34:56","45.7","43.2","90.9","30.13","124","0","0","0.00","0.00"
"21:39:59","46.1","43.3","90","30.13","124","0.4","2.3","0.00","0.00"
"21:44:59","46.4","43.8","90.7","30.13","125","0.1","2.3","0.00","0.00"
"21:49:56","47","44.3","90.4","30.13","125","0.1","1.2","0.00","0.00"
"21:54:58","46.9","43.2","86.8","30.13","125","0","0","0.00","0.00"
"21:59:58","46.5","42.8","86.9","30.14","125","0","0","0.00","0.00"
"22:04:57","46.2","42.5","87","30.14","125","0","0","0.00","0.00"
"22:09:58","45.9","42.2","87","30.14","125","0","0","0.00","0.00"
"22:14:57","45.6","42.2","87.7","30.14","125","0","0","0.00","0.00"
"22:19:59","45.4","42.1","88","30.13","125","0","0","0.00","0.00"
"22:24:57","45.2","41.9","88","30.13","125","0.1","1","0.00","0.00"
"22:29:57","45","41.9","88.8","30.13","125","0.1","1.2","0.00","0.00"
"22:34:58","44.9","42","89.9","30.13","124","0.3","2.3","0.00","0.00"
"22:39:56","44.8","42.2","90.6","30.13","124","0.1","1.2","0.00","0.00"
"22:44:58","44.9","42.5","91.2","30.13","124","0.1","2","0.00","0.00"
"22:49:58","45.3","43.2","92.3","30.13","124","0.5","2.3","0.00","0.00"
"22:54:59","45.3","42.7","90.7","30.13","124","0","0","0.00","0.00"
"22:59:55","45","42.1","89.6","30.13","124","0","0","0.00","0.00"
"23:04:57","44.7","42","90.2","30.13","124","0","0","0.00","0.00"
"23:09:59","44.5","42","91","30.13","124","0","0","0.00","0.00"
"23:14:58","44.5","42.1","91.4","30.13","124","0","0","0.00","0.00"
"23:19:56","44.5","42.3","92","30.13","124","0","0","0.00","0.00"
"23:24:57","44.4","42.1","91.7","30.13","124","0","0","0.00","0.00"
"23:29:58","44.1","41.7","91.3","30.13","124","0","0","0.00","0.00"
"23:34:59","44","41.9","92.3","30.13","124","0","0","0.00","0.00"
"23:39:56","44","41.8","92","30.13","124","0","0","0.00","0.00"
"23:44:58","43.9","42","92.9","30.13","124","0","0","0.00","0.00"
"23:49:56","44","42.2","93.4","30.12","124","0","0","0.00","0.00"
"23:54:57","44.2","42.6","94","30.12","124","0","0","0.00","0.00"
"23:59:59","44.1","42.2","93","30.12","124","0","0","0.00","0.00"
